Miscellaneous Local Product
Issued by NWS Hastings, NE

Home | Current Version | Previous Version | Text Only | Print | Product List | Glossary On
Versions: 1 2 3 4 5 6 7 8 9 10 11 12 13 14 15 16 17 18 19 20 21 22 23 24 25 26 27 28 29 30 31 32 33 34 35 36 37 38 39 40 41 42 43 44 45 46 47 48 49 50
000
AXUS43 KGID 260702
MISGRI

GID CWA HOURLY WEATHER ROUNDUP
NATIONAL WEATHER SERVICE HASTINGS NE
100 AM CST WED NOV 26 2014

NOTE: "FAIR" INDICATES FEW OR NO CLOUDS BELOW 12,000 FEET WITH NO
SIGNIFICANT WEATHER AND/OR OBSTRUCTIONS TO VISIBILITY.

...SOUTH CENTRAL NEBRASKA...

CITY           SKY/WX    TMP DP  RH WIND       PRES   REMARKS
GRAND ISLAND   PTCLDY    36  29  75 NW15      29.91R WCI  27
HASTINGS       MOCLDY    38  28  67 NW15      29.91R WCI  29
KEARNEY        CLOUDY    39  27  60 W14       29.94S WCI  31
ORD            PTCLDY    35  27  72 W15       29.90R WCI  25
YORK           PTCLDY    36  32  87 W13       29.88R WCI  27
AURORA         PTCLDY    35  29  80 W13       29.89S WCI  26
LEXINGTON      CLOUDY    38  28  69 NW10      29.96S WCI  30
HOLDREGE       CLOUDY    40  29  64 NW13G20   29.95R WCI  33
HEBRON         CLOUDY    43  30  60 NW12      29.91R

...NEBRASKA PANHANDLE...

CITY           SKY/WX    TMP DP  RH WIND       PRES   REMARKS
CHADRON        CLOUDY    43  25  49 NW22G35   30.06R
ALLIANCE       CLOUDY    33  22  63 NW24G35   30.02R WCI  20
SCOTTSBLUFF    CLOUDY    31  25  78 W13       30.09R WCI  21
SIDNEY         CLOUDY    30  24  78 NW21      30.06R WCI  17

...WESTERN AND NORTH CENTRAL NEBRASKA...

CITY           SKY/WX    TMP DP  RH WIND       PRES   REMARKS
VALENTINE      CLOUDY    35  25  66 NW18G32   29.94R WCI  24
AINSWORTH      CLOUDY    36  26  68 NW23G29   29.91R WCI  24
ONEILL         CLOUDY    37  32  81 NW20G26   29.87R WCI  27
BROKEN BOW     MOCLDY    37  25  61 NW22      29.93R WCI  26
IMPERIAL       CLOUDY    37  29  72 NW15      30.03R WCI  28
NORTH PLATTE   LGT RAIN  34  32  92 NW10      29.99R WCI  26
MCCOOK         CLOUDY    41  30  65 NW20G25   30.01R

...EASTERN NEBRASKA...

CITY           SKY/WX    TMP DP  RH WIND       PRES   REMARKS
NORFOLK        CLOUDY    37  33  85 W13       29.82S WCI  29
SO SIOUX CITY  LGT RAIN  34  33  96 SE3       29.82S
TEKAMAH        CLOUDY    36  29  75 CALM      29.81
COLUMBUS       MOCLDY    36  28  75 W9        29.86S WCI  29
ALBION         CLEAR     35  29  79 NW8       29.86R WCI  29
OMAHA EPPLEY   LGT RAIN  37  33  85 S14       29.84F WCI  28
OFFUTT AFB     LGT RAIN  37  33  85 S10       29.83F WCI  30
MILLARD        LGT RAIN  39  34  82 S5        29.83F
LINCOLN        MOCLDY    40  33  76 NW15G23   29.86S WCI  32
NEBRASKA CITY  LGT RAIN  38  32  78 SW17G28   29.85F WCI  29
BEATRICE       DRIZZLE   40  35  80 W9        29.88S WCI  34
FALLS CITY     CLOUDY    40  24  53 S9        29.90F WCI  34

...NORTHERN KANSAS...

CITY           SKY/WX    TMP DP  RH WIND       PRES   REMARKS
GOODLAND       CLOUDY    34  32  92 NW16      30.07R WCI  24
HILL CITY      CLOUDY    46  30  53 NW16G22   30.00R
NORTON         CLOUDY    41  27  56 NW13      29.98R
PHILLIPSBURG   CLOUDY    45  30  57 W9        29.98R
SMITH CENTER   CLOUDY    39  28  65 NW8       29.96S WCI  34
BELOIT         CLOUDY    45  28  53 NW12      29.95R
HAYS           CLOUDY    46  25  42 NW15      29.98R
RUSSELL        CLOUDY    43  22  43 NW12      29.95R
CONCORDIA      CLOUDY    43  29  57 NW9       29.93R
SALINA         CLOUDY    45  28  51 SW15      29.93S
TOPEKA         CLOUDY    44  23  43 S16G30    29.91F



USA.gov is the U.S. government's official web portal to all federal, state and local government web resources and services.